Tracking 32579 objects as of 16-Dec-2025
HD Live streaming from Space Station
objects crossing your sky now

SL-12 R/B(2)

Track SL-12 R/B(2) now!


NORAD ID: 23429
Int'l Code: 1994-082D
Perigee: 35,532.2 km
Apogee: 35,759.6 km
Inclination: 14.6 °
Period: 1,428.6 minutes
Semi major axis: 42016 km
RCS: 2.5118 m2 (large)
Launch date: December 16, 1994
Source: Commonwealth of Independent States (former USSR) (CIS)
Launch site: TYURATAM MISSILE AND SPACE COMPLEX (TTMTR)

Note: This is a ROCKET BODY
Your satellite tracking list
Your tracking list is empty




NASA's NSSDC Master Catalog

Two Line Element Set (TLE):
1 23429U 94082D   25349.03943426 -.00000225  00000-0  00000-0 0  9997
2 23429  14.5946 355.5280 0027067 139.4705 227.4169  1.00801490114044
Source of the keplerian elements: AFSPC